Location: Taukkyan
(23.1052°N, 94.0030°E)
Time: 10:41:26
(UTC+00:00)

Cosmos 2263 Rocket - Pass Details

Date: 06 July 2020
Orbit: 825 x 847 km, 71.0° (Epoch: 15 August)

Event Time Altitude Azimuth Distance (km) Brightness Sun altitude
Rises 13:26:13 0° 352° (N) 3,358 5.9 -11.5°
Reaches altitude 10° 13:28:46 10° 359° (N) 2,424 5.0 -12.0°
Maximum altitude 13:34:01 42° 69° (ENE) 1,159 2.7 -13.0°
Enters shadow 13:37:36 19° 131° (SE) 1,865 3.4 -13.7°
